Regional Weather Roundup
Issued by NWS

Home | Current Version | Previous Version | Text Only | Print | Product List | Glossary Off
Versions: 1 2 3 4 5 6 7 8 9 10 11 12 13 14 15 16 17 18 19 20 21 22 23 24 25 26 27 28 29 30 31 32 33 34 35 36 37 38 39 40 41 42 43 44 45 46 47 48 49 50

000
ASUS43 KIND 011209
RWRIN

WEATHER ROUNDUP FOR INDIANA
NATIONAL WEATHER SERVICE INDIANAPOLIS IN
800 AM EDT WED JUL 01 2015

NOTE: "FAIR" INDICATES FEW OR NO CLOUDS BELOW 12,000 FEET WITH NO
SIGNIFICANT WEATHER AND/OR OBSTRUCTIONS TO VISIBILITY.

* - STATION DOES NOT REPORT WEATHER SUCH AS PRECIPITATION OR FOG.

+ - STATION NOT QUALITY CONTROLLED BY THE NATIONAL WEATHER SERVICE.
    USE DATA WITH CAUTION...ESPECIALLY DEWPOINT AND RELATIVE
    HUMIDITY OBSERVATIONS.

INZ001>003-010>013-019-020-011300-
NORTHWEST INDIANA

CITY           SKY/WX    TMP DP  RH WIND       PRES   REMARKS
GARY /AIRPORT/ PTSUNNY   59  54  82 N8        29.97R
KNOX *+        CLOUDY    55  55 100 N7        29.94R
LA PORTE +     CLOUDY    60  58  94 N12       29.95R
MICHIGAN CITY+ CLOUDY    57  55  94 N8        29.97R
MONTICELLO +   SUNNY     59  59  98 N5        29.93R
6HR MIN TEMP:  56; 6HR MAX TEMP:  61;

RENSSELAER +   MOSUNNY   59  59 100 N7        29.95R
VALPARAISO     CLOUDY    58  54  86 N7        29.96R
6HR MIN TEMP:  57; 6HR MAX TEMP:  59;


$$

LMZ046-743>745-011300-
SOUTHERN LAKE MICHIGAN

STATION/POSITION TIME  TEMP    WIND        PRES    WAVE
                       AIR SEA DIR/SP/G            HT
                 (UTC) (F)     (DEG/KT/KT) (MB)    (FT)
BURNS HARBOR     1200   58      10/ 13/ 14 1015.2R
MICHIGAN CITY    1200   58     350/ 11/ 13   N/A
5NW MICH CITY    1200   58 65   20/ 10/ 16   N/A     4

$$

INZ004-005-014>016-021>024-011300-
NORTH CENTRAL INDIANA

CITY           SKY/WX    TMP DP  RH WIND       PRES   REMARKS
ELKHART        CLOUDY    57  55  94 NW6       29.94R
GOSHEN         CLOUDY    58  55  90 NW7       29.93R
6HR MIN TEMP:  55; 6HR MAX TEMP:  58;

LOGANSPORT +   PTSUNNY   59  55  88 N5        29.94R
PERU/GRISSOM   SUNNY     60  58  92 NW5       29.93R
6HR MIN TEMP:  57; 6HR MAX TEMP:  62; 6HR PCP: TRACE;

ROCHESTER +    CLOUDY    61  61 100 NW7       29.94R
SOUTH BEND     PTSUNNY   59  55  87 NW9       29.94R
6HR MIN TEMP:  57; 6HR MAX TEMP:  59;

WARSAW +         N/A     55  55 100 NW9       29.93R

$$

INZ006>009-017-018-025>027-011300-
NORTHEAST INDIANA

CITY           SKY/WX    TMP DP  RH WIND       PRES   REMARKS
ANGOLA *+      CLOUDY    57  54  88 NW10      29.91R
AUBURN +       SUNNY     59  54  82 NW6       29.91S
FORT WAYNE     MOSUNNY   60  56  86 W6        29.92R
6HR MIN TEMP:  57; 6HR MAX TEMP:  61;

HUNTINGTON +   SUNNY     58  56  92 CALM      29.92R
6HR MIN TEMP:  56; 6HR MAX TEMP:  60;


$$

INZ028-029-035-036-043>045-051>053-011300-
WEST CENTRAL INDIANA

CITY           SKY/WX    TMP DP  RH WIND       PRES   REMARKS
CRAWFORDSVL +  PTSUNNY   60  59  97 CALM      29.94R FOG
6HR MIN TEMP:  56; 6HR MAX TEMP:  60;

GREENCASTLE +  MOSUNNY   63  55  77 CALM      29.94R HAZE
LAFAYETTE      MOSUNNY   61  58  90 CALM      29.94R
6HR MIN TEMP:  56; 6HR MAX TEMP:  63;

TERRE HAUTE    MOSUNNY   66  64  93 CALM      29.93R FOG
6HR MIN TEMP:  62; 6HR MAX TEMP:  66;


$$

INZ030>032-037>040-046>048-054>057-064-065-011300-
CENTRAL INDIANA

CITY           SKY/WX    TMP DP  RH WIND       PRES   REMARKS
CP ATTERBURY + MOSUNNY   61  61 100 CALM      29.93R FOG
COLUMBUS       FOG       61  59  94 CALM      29.93R VSB 1/2
FRANKFORT +    SUNNY    N/A N/A N/A CALM      29.95R
GREENWOOD *+   SUNNY     64  61  88 NE6       29.94
INDIANAPOLIS   PTSUNNY   65  58  78 NE7       29.91R
6HR MIN TEMP:  62; 6HR MAX TEMP:  68;

-EAGLE CREEK   SUNNY     63  59  87 CALM      29.93R
6HR MIN TEMP:  61; 6HR MAX TEMP:  66;

KOKOMO *+      SUNNY     61  55  82 N5        29.94R
6HR MIN TEMP:  57; 6HR MAX TEMP:  63;

MARION +       SUNNY     58  57  96 NW3       29.94R
MT COMFORT *+  SUNNY     61 N/A N/A CALM      29.93R
SHELBYVILLE    SUNNY     65  61  87 N5        29.92R FOG
6HR MIN TEMP:  60; 6HR MAX TEMP:  65;

ZIONSVILLE +   SUNNY     62  58  87 N3        29.95R
6HR MIN TEMP:  59; 6HR MAX TEMP:  64;


$$

INZ033-034-041-042-049-050-058-059-011300-
EAST CENTRAL INDIANA

CITY           SKY/WX    TMP DP  RH WIND       PRES   REMARKS
MUNCIE         SUNNY     61  57  87 NW5       29.93R
6HR MIN TEMP:  59; 6HR MAX TEMP:  63;


$$

INZ060-061-067>069-081>083-085>088-011300-
SOUTHWEST INDIANA

CITY           SKY/WX    TMP DP  RH WIND       PRES   REMARKS
EVANSVILLE     PTSUNNY   71  69  93 CALM      29.91R FOG
6HR MIN TEMP:  68; 6HR MAX TEMP:  73;

HUNTINGBURG *+ CLOUDY    68  64  88 CALM      29.91R VSB 1/4
6HR MIN TEMP:  64; 6HR MAX TEMP:  72;

WASHINGTON +   PTSUNNY   67  64  87 CALM      29.91R FOG
6HR MIN TEMP:  64; 6HR MAX TEMP:  69;


$$

INZ062-063-066-070>080-084-089>092-011300-
SOUTH CENTRAL AND SOUTHEAST INDIANA

CITY           SKY/WX    TMP DP  RH WIND       PRES   REMARKS
BLOOMINGTON    MOSUNNY   64  63  96 CALM      29.92R FOG
6HR MIN TEMP:  59; 6HR MAX TEMP:  64;

MADISON *+     PTSUNNY   64  63  94 CALM      29.94R
NORTH VERNON + FOG       63  63 100 CALM      29.93R VSB<1/4
SEYMOUR +      FOG       66  66 100 CALM      29.92R VSB 1

$$




USA.gov is the U.S. government's official web portal to all federal, state and local government web resources and services.